www.pogodaiklimat.ru

Погода и климат >> Архив погоды >> Россия >> Приморский край >> Партизанск


ПОГОДА в Партизанске

  • Прогноз погоды в Партизанске
  • Монитор погоды в Партизанске
  • Климат города

АРХИВ ПОГОДЫ в Партизанске

Время (UTC), дата Ветер
(напр.,м/с)
 
Видим.   Явления Облачность Т
(С)
Тd
(С)
f
(%)
Тe
(С)
Тes
(С)
Комфортность P
(гПа)
Po
(гПа)
Тmin
(С)
Tmax
(С)
R
(мм)
R24
(мм)
S
(см)
06 12.08 Ю 5 50 км слабый ливневой дождь 9/8 600 м
[Cb cap Ac trans]
+21.9 +18.0 79 +27 +27 душно 1011.2 987.4
09 12.08 Ю 3 20 км в посл. час ливневой дождь 10/10 300 м
[St]
+17.8 +16.3 91 +18 +18 1012.8 988.6 +26.8 7
12 12.08 Ю 2 20 км {ливн. осадки} 10/10 300 м
[St]
+16.7 +15.2 91 +17 +17 1014.4 990.1
15 12.08 Ю 2 4000 м дымка 10/10 300 м
[St]
+16.5 +15.1 91 +17 +17 1014.3 990.0
18 12.08 Ю 1 4000 м дымка 10/10 300 м
[St]
+16.3 +15.0 92 +17 +17 1014.4 990.1
21 12.08 Ю 1 4000 м туман на расстоянии 10/10 200 м
[St]
+16.4 +15.1 92 +17 +17 1014.9 990.6 +16.2
00 13.08 штиль 0 20 км 10/10 200 м
[St]
+18.5 +15.5 83 +19 +19 1014.8 990.6
03 13.08 Ю 3 50 км 9/8 600 м
[St Ci sp]
+22.8 +17.9 74 +28 +31 душно 1013.7 990.0
06 13.08 Ю 5 50 км 6/5 600 м
[Cu Sc Ci sp]
+23.6 +18.4 73 +28 +31 душно 1012.5 988.8
09 13.08 Ю 4 20 км 10/9 300 м
[Sc diur, vesp Ac und]
+18.0 +15.4 85 +18 +18 1013.0 988.9 +24.2
12 13.08 Ю 2 50 км 10/10 300 м
[St]
+16.4 +14.5 89 +16 +16 1014.7 990.4
15 13.08 Ю 3 50 км в посл. час морось 10/10 200 м
[St]
+15.9 +14.2 90 +15 +15 1014.4 990.1
18 13.08 Ю 1 50 км {морось} 10/10 200 м
[St]
+15.8 +14.1 90 +16 +16 1013.8 989.4
21 13.08 С 1 4000 м слабая морось туман 10/10 100 м
[St]
+15.3 +14.0 92 +16 +16 1013.3 988.9 +15.1 0.3
00 14.08 Ю 1 50 км {морось} 10/10 300 м
[St]
+16.8 +14.9 89 +18 +18 1013.0 988.7
03 14.08 Ю 5 50 км 9/9 600 м
[St]
+21.1 +16.7 76 +25 +25 комфорт 1012.3 988.4
06 14.08 Ю 4 50 км 9/5 600 м
[Cu Sc Ac trans]
+20.9 +16.1 74 +24 +26 комфорт 1011.3 987.5
09 14.08 Ю 3 50 км 9/8 600 м
[Sc diur, vesp Ac lent]
+18.3 +15.1 82 +19 +19 1011.5 987.4 +22.2 0.0
12 14.08 Ю 3 50 км 10/10 600 м
[Sc]
+17.0 +14.8 87 +17 +17 1012.3 988.1
15 14.08 Ю 2 50 км 10/10 600 м
[St]
+16.1 +14.5 90 +16 +16 1012.2 987.9
18 14.08 Ю 1 50 км в посл. час морось 10/10 300 м
[St]
+15.9 +14.4 91 +17 +17 1011.7 987.4
21 14.08 С 1 50 км 9/9 300 м
[St]
+16.2 +14.9 92 +17 +17 1011.8 987.5 +15.9 0.0
00 15.08 СВ 2 50 км 9/9 600 м
[Cu Sc]
+19.6 +15.7 78 +22 +23 комфорт 1011.4 987.4
03 15.08 Ю 1 50 км 9/9 1000 м
[Cu Sc]
+24.4 +16.1 60 +28 +30 душно 1010.1 986.5
06 15.08 Ю 3 50 км 8/6 1000 м
[Cu Sc Ci fib]
+24.7 +17.6 65 +29 +32 душно 1008.8 985.3
09 15.08 Ю 3 50 км 10/3 600 м
[Sc diur, vesp As trans Ci fib]
+20.9 +16.7 77 +25 +25 комфорт 1009.5 985.7 +25.9
12 15.08 Ю 1 50 км 9/9 600 м
[Sc]
+17.9 +15.8 88 +19 +19 1010.9 986.8
15 15.08 С 1 4000 м дымка 9/9 300 м
[St]
+16.8 +15.4 91 +18 +18 1011.1 986.9
18 15.08 СЗ 1 500 м туман ?/? +16.2 +14.9 92 +17 +17 1011.1 986.8
21 15.08 штиль 0 200 м туман ?/? +16.4 +15.8 96 +16 +16 1011.6 987.4 +16.1
00 16.08 Ю 1 50 км {туман} 9/1 600 м
[Cu hum Ac cuf Ci ing]
+19.6 +15.5 77 +23 +28 комфорт 1011.7 987.7
03 16.08 Ю 1 50 км 10/3 1000 м
[Cb calv Ac As Cs]
+24.3 +14.4 54 +27 +34 жарко 1010.8 987.2
06 16.08 Ю 3 50 км 10/8 600 м
[Sc Ac As]
+21.6 +15.7 69 +25 +26 комфорт 1011.2 987.4
09 16.08 ЮЗ 2 50 км 10/10 600 м
[Sc]
+19.7 +15.6 77 +22 +22 комфорт 1011.4 987.5 +24.5
12 16.08 ЮЗ 1 50 км 8/3 600 м
[St As trans Cs]
+18.0 +16.1 89 +19 +19 1012.8 988.7
15 16.08 С 1 4000 м туман на расстоянии 9/9 600 м
[St]
+16.6 +15.8 95 +17 +17 1013.2 989.0
18 16.08 СЗ 1 4000 м туман на расстоянии 9/8 600 м
[St Ac lent Cs]
+16.2 +15.4 95 +17 +17 1013.1 988.8
21 16.08 штиль 0 500 м туман ?/? +16.3 +15.7 96 +16 +16 1013.9 989.6 +16.1
00 17.08 СЗ 1 50 км в посл. час туман 8/4 600 м
[St Ac cast]
+20.1 +16.3 79 +24 +27 комфорт 1013.7 989.7 +16.0
03 17.08 Ю 4 50 км 8/8 600 м
[Cu med, cong Ac trans]
+25.3 +16.7 59 +29 +31 душно 1012.3 988.7
06 17.08 ЮЗ 3 50 км 8/6 600 м
[Cb calv Ac lent]
+22.4 +16.7 70 +27 +29 душно 1011.7 988.0
09 17.08 Ю 3 50 км {ливн. осадки} 10/8 1000 м
[Sc diur, vesp Ac trans Cc]
+19.6 +15.0 75 +22 +22 комфорт 1012.7 988.6 +25.3 0.0
12 17.08 Ю 2 50 км {ливн. осадки} 10/10 1000 м
[Sc]
+17.7 +14.8 83 +18 +18 1014.0 989.8
15 17.08 штиль 0 50 км 10/10 600 м
[Sc]
+17.3 +15.2 87 +17 +17 1014.1 989.9
18 17.08 СВ 1 50 км 10/10 600 м
[Sc]
+17.0 +14.9 87 +18 +18 1013.8 989.6
21 17.08 С 2 50 км 9/9 1000 м
[Sc]
+17.3 +14.7 85 +18 +18 1014.4 990.1 +16.8
00 18.08 СВ 2 50 км 4/3 1000 м
[Sc Ci fib]
+21.2 +16.8 76 +25 +31 комфорт 1013.6 989.7
03 18.08 Ю 1 50 км 8/3 1000 м
[Cu med, cong Cc]
+25.2 +16.5 59 +29 +40 душно 1013.2 989.6
06 18.08 Ю 5 50 км 3/3 1000 м
[Cb cap Ci fib]
+25.8 +17.5 60 +30 +33 душно 1012.1 988.6
09 18.08 Ю 3 50 км 5/4 1000 м
[Sc diur, vesp Ac trans]
+20.9 +17.0 78 +25 +25 комфорт 1013.0 989.1 +27.3
12 18.08 Ю 1 50 км 5/5 1000 м
[Sc]
+17.9 +16.5 92 +19 +19 1014.7 990.5
15 18.08 С 1 200 м туман ?/? +16.8 +16.2 96 +18 +18 1015.4 991.1
18 18.08 Ю 1 200 м туман ?/? +16.9 +16.3 96 +18 +18 1014.8 990.5
21 18.08 штиль 0 200 м туман ?/? +16.9 +16.3 96 +17 +17 1015.5 991.2 +16.5
00 19.08 СВ 1 50 км {туман} 1/1 600 м
[Cu hum]
+22.2 +17.7 76 +27 +36 душно 1015.2 991.4

 

Местоположение метеостанции Партизанск (Приморский край, Россия): широта 43.15 долгота 133.00 высота над уровнем моря 208 м.

В архиве по умолчанию представлена погода в Партизанске за последнюю неделю. Архивные данные за месяц целиком и за предыдущие месяцы, начиная с января 2011 года, Вы можете получить, выбрав интересующий диапазон дат из раскрывающегося списка и нажав кнопку "Ввод!".

Внимание! Время в таблицах - всемирное. Для получения местного времени необходимо прибавить поправку, которая в Партизанске равна 10 ч.

Смотрите также архив погоды в соседних городах и на ближайших метеорологических станциях:

Погода в Находке (Приморский край, Россия) (42 км)
Погода в Лазо (Приморский край, Россия) (71 км)
Погода в Преображении (Приморский край, Россия) (78 км)
Погода в Владивостоке (Приморский край, Россия) (89 км)
Погода в Анучино (Приморский край, Россия) (91 км)
Погода в Тимирязевском (Приморский край, Россия) (120 км)
Погода в Чугуевке (Приморский край, Россия) (129 км)
Погода в Барабаше (Приморский край, Россия) (130 км)
Погода в Гамове (Приморский край, Россия) (160 км)
Погода в Хороль (Приморский край, Россия) (163 км)

Пояснения к столбцам:

Ветер - указаны скорость ветра в м/с - средняя за 10 мин, порывы в срок и между сроками (в фигурных скобках) и направление, откуда дует ветер: С - северный, СВ - северо-восточный, В - восточный, ЮВ - юго-восточный, Ю - южный, ЮЗ - юго-западный, З - западный, СЗ - северо-западный.
Видимость - горизонтальная дальность видимости в метрах или километрах. При видимости от 1 до 10 км при отсутствии осадков обычно наблюдается дымка, при ухудшении видимости до 1 км и менее - туман. В сухую погоду видимость может ухудшаться дымом, пылью или мглою.
Явления - указаны атмосферные явления, наблюдавшиеся в срок или в последний час перед сроком; фигурными скобками обозначены явления, наблюдавшиеся между сроками (за 1-3 часа до срока); квадратными скобками обозначены град или гололедные отложения с указанием их диаметра в мм.
Облачность - указаны через наклонную черту общая и нижняя облачность в баллах и высота нижней границы облаков в метрах; квадратными скобками обозначены формы облаков: Ci - перистые, Cs - перисто-слоистые, Cc - перисто-кучевые, Ac - высококучевые, As - высокослоистые, Sc - слоисто-кучевые, Ns - слоисто-дождевые, Cu - кучевые, Cb - кучево-дождевые. Подробнее классификацию облаков см. в Атласе облаков (PDF).
T - Температура воздуха - температура, измеренная на высоте 2 м над землей.
Td - Температура точки росы - температура, при понижении до которой содержащийся в воздухе водяной пар достигнет насыщения.
f - Относительная влажность воздуха - влажноcть воздуха, измеренная на высоте 2 м над землей.
Te - Эффективная температура - температура, которую ощущает одетый по сезону человек в тени. Характеристика душности погоды. При расчете учитывается влияние влажности воздуха и скорости ветра на теплоощущения человека.
Tes - Эффективная температура на солнце - температура, которую ощущает человек, с поправкой на солнечный нагрев. Характеристика знойности погоды. Зависит от высоты солнца над горизонтом, облачности и скорости ветра. Ночью, в пасмурную погоду, а также при ветре 12 м/с и более поправка равна нулю.
P - Атмосферное давление - приведенное к уровню моря атмосферное давление.
Po - Атмосферное давление - измеренное на уровне метеостанции атмосферное давление.
Tmin - Минимальная температура - минимум температуры воздуха на высоте 2 м над землей.
Tmax - Максимальная температура - максимум температуры воздуха на высоте 2 м над землей.
R - Количество осадков - Количество выпавших осадков за период времени, мм. При наведении курсора мыши на число - период времени, за который выпало указанное количество осадков.
R24 - Количество осадков - Количество выпавших осадков за 24 часа, мм.
S - Снежный покров - Высота снежного покрова, см. При наведении курсора мыши на число - состояние снежного покрова и степень покрытия местности в баллах.